TimeEST,TemperatureF,Dew PointF,Humidity,Sea Level PressureIn,VisibilityMPH,Wind Direction,Wind SpeedMPH,Gust SpeedMPH,PrecipitationIn,Events,Conditions,WindDirDegrees,DateUTC
12:45 AM,55.4,53.6,94,30.21,10.0,South,15.0,26.5,N/A,,Overcast,170,2012-11-13 05:45:00
12:53 AM,55.9,54.0,93,30.21,10.0,South,15.0,21.9,N/A,,Overcast,170,2012-11-13 05:53:00
1:53 AM,55.9,54.0,93,30.20,10.0,South,12.7,23.0,N/A,,Mostly Cloudy,170,2012-11-13 06:53:00
2:11 AM,55.4,53.6,94,30.20,10.0,South,10.4,-,N/A,,Mostly Cloudy,180,2012-11-13 07:11:00
2:31 AM,55.4,53.6,94,30.19,10.0,South,13.8,-,N/A,,Overcast,180,2012-11-13 07:31:00
2:53 AM,55.9,55.0,97,30.16,10.0,South,15.0,24.2,N/A,,Overcast,170,2012-11-13 07:53:00
3:07 AM,55.4,55.4,100,30.16,10.0,South,10.4,-,N/A,,Overcast,180,2012-11-13 08:07:00
3:21 AM,57.2,55.4,94,30.15,10.0,South,15.0,21.9,N/A,,Overcast,180,2012-11-13 08:21:00
3:53 AM,57.0,55.0,93,30.14,10.0,South,15.0,23.0,N/A,,Overcast,180,2012-11-13 08:53:00
4:53 AM,57.0,55.9,96,30.12,10.0,South,17.3,25.3,N/A,,Overcast,180,2012-11-13 09:53:00
5:53 AM,57.0,55.9,96,30.10,8.0,South,20.7,28.8,0.00,Rain,Light Rain,180,2012-11-13 10:53:00
6:28 AM,57.2,55.4,94,30.11,5.0,South,17.3,25.3,0.00,Rain,Light Rain,170,2012-11-13 11:28:00
6:47 AM,57.2,55.4,94,30.10,5.0,South,20.7,27.6,0.01,Rain,Light Rain,170,2012-11-13 11:47:00
6:53 AM,57.0,55.9,96,30.10,5.0,South,18.4,27.6,0.01,,Overcast,180,2012-11-13 11:53:00
7:02 AM,57.2,55.4,94,30.11,5.0,South,17.3,24.2,N/A,,Overcast,180,2012-11-13 12:02:00
7:53 AM,57.9,55.9,93,30.11,5.0,South,13.8,21.9,N/A,,Overcast,180,2012-11-13 12:53:00
8:53 AM,59.0,57.0,93,30.09,10.0,South,13.8,21.9,N/A,,Overcast,180,2012-11-13 13:53:00
9:34 AM,53.6,51.8,94,30.13,4.0,WNW,11.5,28.8,0.04,Rain,Heavy Rain,300,2012-11-13 14:34:00
9:53 AM,51.1,48.9,92,30.14,10.0,WNW,4.6,-,0.04,Rain,Light Rain,290,2012-11-13 14:53:00
10:38 AM,51.8,48.2,88,30.15,9.0,Calm,Calm,-,0.01,Rain,Light Rain,0,2012-11-13 15:38:00
10:53 AM,50.0,48.9,96,30.15,3.0,Calm,Calm,-,0.02,Rain,Light Rain,0,2012-11-13 15:53:00
11:28 AM,50.0,48.2,94,30.16,1.5,West,4.6,-,0.01,Rain,Light Rain,260,2012-11-13 16:28:00
11:53 AM,48.9,48.0,97,30.17,1.5,NW,9.2,-,0.03,Rain,Light Rain,310,2012-11-13 16:53:00
12:23 PM,50.0,48.2,94,30.16,6.0,NNW,4.6,-,0.00,,Overcast,330,2012-11-13 17:23:00
12:33 PM,48.2,46.4,93,30.16,6.0,NNW,4.6,-,0.00,,Overcast,340,2012-11-13 17:33:00
12:53 PM,48.9,48.0,97,30.17,10.0,NW,4.6,-,0.00,Rain,Light Rain,310,2012-11-13 17:53:00
1:24 PM,48.2,48.2,100,30.16,9.0,NW,3.5,-,0.01,Rain,Light Rain,310,2012-11-13 18:24:00
1:53 PM,48.9,46.9,93,30.17,7.0,NW,4.6,-,0.04,Rain,Light Rain,320,2012-11-13 18:53:00
2:01 PM,48.2,46.4,93,30.16,8.0,NNW,11.5,-,0.00,Rain,Light Rain,340,2012-11-13 19:01:00
2:50 PM,44.6,42.8,93,30.21,6.0,NNW,18.4,24.2,0.04,Rain,Light Rain,340,2012-11-13 19:50:00
2:53 PM,43.0,41.0,93,30.22,6.0,NW,17.3,-,0.04,Rain,Light Rain,320,2012-11-13 19:53:00
3:26 PM,42.8,37.4,81,30.24,10.0,NW,12.7,18.4,0.01,Rain,Light Rain,320,2012-11-13 20:26:00
3:53 PM,41.0,37.0,86,30.25,10.0,NW,8.1,17.3,0.02,Rain,Light Rain,310,2012-11-13 20:53:00
4:25 PM,39.2,37.4,93,30.26,10.0,NW,5.8,-,0.00,,Overcast,310,2012-11-13 21:25:00
4:53 PM,41.0,37.9,89,30.28,10.0,WNW,4.6,-,0.00,,Overcast,300,2012-11-13 21:53:00
5:53 PM,39.9,34.0,79,30.32,10.0,NNW,13.8,20.7,N/A,,Overcast,330,2012-11-13 22:53:00
6:53 PM,39.0,32.0,76,30.34,10.0,NW,10.4,-,N/A,,Overcast,320,2012-11-13 23:53:00
7:53 PM,39.0,32.0,76,30.37,10.0,NW,4.6,-,N/A,,Overcast,320,2012-11-14 00:53:00
8:53 PM,37.9,30.9,76,30.39,10.0,NW,10.4,-,N/A,,Overcast,320,2012-11-14 01:53:00
9:53 PM,37.9,28.9,70,30.40,10.0,NW,9.2,-,N/A,,Overcast,310,2012-11-14 02:53:00
10:53 PM,34.0,28.0,79,30.41,10.0,NW,9.2,-,N/A,,Partly Cloudy,320,2012-11-14 03:53:00
11:53 PM,33.1,27.0,78,30.42,10.0,WNW,3.5,-,N/A,,Clear,290,2012-11-14 04:53:00